Location: Unspecified
(0.0000°N, 0.0000°E)
Time: 01:53:16
(UTC+00:00)

ISS - Visible Passes

Search period start: 23 June 2017 00:00
Search period end: 03 July 2017 00:00
Orbit: 401 x 408 km, 51.6° (Epoch: 23 June)

Date Brightness Start Highest point End Pass type
(mag) Time Alt. Az. Time Alt. Az. Time Alt. Az.
25 Jun -1.1 04:47:47 10° SSE 04:49:45 15° SE 04:51:42 10° E visible
26 Jun -3.2 05:30:46 10° SW 05:33:52 41° NW 05:36:57 10° NNE visible
27 Jun -3.5 04:41:04 47° S 04:41:42 60° SE 04:44:54 10° NE visible
28 Jun -0.5 03:51:30 13° E 03:51:30 13° E 03:52:03 10° ENE visible
28 Jun -1.5 05:24:44 10° WNW 05:25:48 11° NW 05:26:51 10° NW visible
29 Jun -2.1 04:34:35 24° NNW 04:34:35 24° NNW 04:36:26 10° N visible
